Regional Weather Roundup
Issued by NWS

Home | Current Version | Previous Version | Text Only | Print | Product List | Glossary Off
Versions: 1 2 3 4 5 6 7 8 9 10 11 12 13 14 15 16 17 18 19 20 21 22 23 24 25 26 27 28 29 30 31 32 33 34 35 36 37 38 39 40 41 42 43 44 45 46 47 48 49 50

000
ASUS45 KABQ 261401
RWRNM
NEW MEXICO REGIONAL WEATHER ROUNDUP
NATIONAL WEATHER SERVICE ALBUQUERQUE NM
800 AM MDT SUN JUN 26 2016

NOTE: "FAIR" MEANS FEW OR NO CLOUDS BELOW 12,000 FEET AGL WITH NO
       SIGNIFICANT WEATHER OR OBSTRUCTIONS TO VISION.

      THIS PRODUCT IS RELEASED AS TWO VERSIONS.  ONE VERSION NEAR
      THE TOP OF THE HOUR CONTAINING PRELIMINARY DATA FROM ALBUQUERQUE
      AND OTHER STATIONS.  A FINAL VERSION WITH ADDITIONAL DATA IS
      ISSUED ABOUT 10 MINUTES AFTER THE HOUR.

NMZ501-503-504-510>518-261500-
NORTHWEST PLATEAU/NORTHCENTRAL MOUNTAINS

CITY           SKY/WX    TMP DP  RH WIND       PRES   REMARKS
FARMINGTON     FAIR      75  42  30 E9        30.23R
LOS ALAMOS     FAIR      66  45  47 SW12      30.42R
SANTA FE       FAIR      70  51  51 SE10      30.36R
TAOS           FAIR      63  45  51 NW3       30.41R
ANGEL FIRE     FAIR      51  46  84 CALM      30.51S

$$
NMZ402-403-502-505>509-261500-
WESTCENTRAL MOUNTAINS/SOUTHWEST MOUNTAINS

CITY           SKY/WX    TMP DP  RH WIND       PRES   REMARKS
GALLUP         FAIR      71  40  32 S7        30.29R
GRANTS         PTSUNNY   70  45  40 SE16G22   30.34R
SILVER CITY    FAIR      71  51  48 CALM      30.24R

$$
NMZ407-409-411-412-261500-
SOUTHERN DESERTS

CITY           SKY/WX    TMP DP  RH WIND       PRES   REMARKS
LORDSBURG      CLOUDY    70  63  78 MISG      30.15R
DEMING         FAIR      77  54  44 NE6       30.16R
LAS CRUCES     FAIR      76  53  44 W5        30.18R
HOLLOMAN AFB   FAIR      74  54  50 SE5       30.14R
ALAMOGORDO     FAIR      75  52  43 CALM      30.17R
T OR C         FAIR      73  56  54 N3        30.20R

$$
NMZ519>523-261500-
CENTRAL VALLEYS/CENTRAL HIGHLANDS

CITY           SKY/WX    TMP DP  RH WIND       PRES   REMARKS
ALBUQUERQUE    PTSUNNY   75  51  43 E21       30.27R
DOUBLE EAGLE   MOSUNNY   73  52  46 MISG      30.31R
MORIARTY ARPT  FAIR      65  51  61 CALM      30.38R
CLINES CORNERS FAIR      59  53  80 E10       30.40R
BELEN          FAIR      75  46  35 W7        30.26R
SOCORRO        FAIR      75  48  38 N5        30.24R

$$
NMZ524>526-539-540-261500-
SOUTHCENTRAL MOUNTAINS

CITY           SKY/WX    TMP DP  RH WIND       PRES   REMARKS
RUIDOSO          N/A     64  50  59 NE5       30.39R

$$
NMZ527>531-261500-
NORTHEAST HIGHLANDS/NORTHEAST PLAINS

CITY           SKY/WX    TMP DP  RH WIND       PRES   REMARKS
LAS VEGAS      FAIR      63  53  70 CALM      30.41R
RATON          FAIR      63  55  75 S14       30.36R
CLAYTON        FAIR      69  62  78 SW5       30.29R

$$
NMZ532>537-261500-
EASTCENTRAL PLAINS

CITY           SKY/WX    TMP DP  RH WIND       PRES   REMARKS
TUCUMCARI      FAIR      69  64  84 N6        30.23R
CANNON AFB     PTSUNNY   72  61  68 SE6       30.23R
CLOVIS AIRPORT FAIR      72  59  64 CALM      30.22S

$$
NMZ028-029-538-261500-
SOUTHEAST PLAINS

CITY           SKY/WX    TMP DP  RH WIND       PRES   REMARKS
ROSWELL        FAIR      73  60  63 N6        30.19R
ARTESIA        FAIR      73  66  78 SE8       30.18R
CARLSBAD       FAIR      73  62  68 SE8       30.15R
HOBBS          MOSUNNY   70  68  94 SE8       30.20R


$$



USA.gov is the U.S. government's official web portal to all federal, state and local government web resources and services.